Total_Precipitation_Accumulation
0.00 0.00 0.01 0.01 0.00 0.01 0.03 0.03 0.04 0.06 0.04 0.06 0.14 0.25 0.29 0.32 0.45 0.53 0.71 0.89 1.08 1.14 1.38 1.60 1.67 1.79 1.85 2.11 2.36 2.58 3.04 3.22 3.13 2.91 2.58 2.41 2.30 2.25 2.16 2.02 1.86 1.83 1.84 1.93
0.01 0.02 0.01 0.00 0.01 0.01 0.04 0.04 0.04 0.07 0.05 0.06 0.13 0.27 0.35 0.45 0.63 0.71 0.73 0.80 0.90 1.15 1.32 1.49 1.54 1.50 1.73 2.20 2.49 2.54 2.50 2.63 2.69 2.61 2.52 2.50 2.56 2.33 2.12 2.01 1.83 1.70 1.73 1.82
0.02 0.03 0.01 0.01 0.01 0.01 0.02 0.03 0.04 0.08 0.08 0.07 0.13 0.32 0.46 0.56 0.66 0.80 0.87 0.89 0.97 1.19 1.36 1.46 1.45 1.38 1.44 1.59 1.79 1.90 1.94 1.86 1.85 1.92 2.08 2.16 2.22 2.03 1.87 1.80 1.74 1.62 1.57 1.53
0.02 0.02 0.02 0.03 0.03 0.03 0.04 0.04 0.03 0.03 0.06 0.11 0.19 0.47 0.70 0.65 0.73 0.91 0.92 0.91 1.07 1.30 1.22 1.20 1.25 1.20 1.23 1.32 1.42 1.44 1.47 1.47 1.51 1.61 1.72 1.73 1.72 1.63 1.60 1.62 1.53 1.48 1.43 1.39
0.04 0.03 0.03 0.04 0.04 0.04 0.04 0.03 0.03 0.04 0.05 0.08 0.17 0.40 0.73 0.96 0.99 0.91 0.88 0.83 0.98 1.04 0.93 0.87 0.91 0.92 0.95 0.98 1.09 1.18 1.26 1.26 1.27 1.30 1.35 1.39 1.38 1.39 1.41 1.35 1.29 1.23 1.20 1.26
0.04 0.04 0.03 0.03 0.03 0.03 0.03 0.04 0.07 0.10 0.11 0.21 0.29 0.40 0.72 1.03 1.18 0.94 0.86 0.80 0.86 0.85 0.82 0.86 0.84 0.79 0.82 0.89 0.99 1.06 1.11 1.13 1.14 1.15 1.17 1.18 1.18 1.19 1.19 1.15 1.16 1.13 1.08 1.02
0.09 0.09 0.07 0.04 0.04 0.03 0.04 0.06 0.22 0.39 0.48 0.57 0.43 0.53 0.87 0.92 0.92 0.85 0.81 0.84 0.85 0.77 0.72 0.69 0.70 0.71 0.77 0.79 0.80 0.81 0.83 0.88 0.84 0.83 0.88 0.90 0.90 0.90 0.91 0.91 0.88 0.83 0.75 0.73
0.14 0.18 0.10 0.07 0.06 0.06 0.07 0.10 0.33 0.42 0.33 0.43 0.45 0.71 1.09 0.89 0.83 0.75 0.77 0.86 0.80 0.64 0.56 0.55 0.54 0.54 0.58 0.58 0.55 0.56 0.60 0.68 0.71 0.70 0.70 0.62 0.58 0.57 0.57 0.65 0.65 0.61 0.57 0.55
0.08 0.08 0.06 0.05 0.05 0.07 0.11 0.14 0.18 0.33 0.28 0.33 0.43 0.71 0.92 0.79 0.77 0.80 0.89 0.92 0.83 0.62 0.48 0.43 0.40 0.39 0.37 0.36 0.40 0.46 0.52 0.56 0.61 0.60 0.56 0.51 0.46 0.43 0.43 0.47 0.53 0.53 0.58 0.53
0.04 0.03 0.03 0.04 0.04 0.07 0.10 0.11 0.13 0.26 0.31 0.33 0.34 0.67 0.88 0.98 0.96 0.88 0.91 0.80 0.58 0.44 0.34 0.29 0.25 0.24 0.24 0.25 0.30 0.38 0.42 0.42 0.43 0.44 0.43 0.38 0.36 0.37 0.39 0.40 0.42 0.44 0.47 0.49
0.01 0.01 0.03 0.05 0.06 0.07 0.11 0.14 0.21 0.30 0.30 0.37 0.42 0.56 0.58 0.67 0.79 0.85 0.79 0.61 0.40 0.29 0.21 0.20 0.20 0.20 0.21 0.21 0.25 0.32 0.39 0.42 0.43 0.42 0.41 0.35 0.30 0.29 0.30 0.31 0.33 0.38 0.41 0.44
0.01 0.01 0.02 0.06 0.08 0.08 0.08 0.12 0.21 0.32 0.29 0.31 0.38 0.45 0.29 0.31 0.42 0.45 0.42 0.34 0.27 0.21 0.19 0.21 0.23 0.23 0.21 0.23 0.27 0.34 0.39 0.44 0.48 0.49 0.50 0.46 0.40 0.36 0.34 0.32 0.30 0.31 0.34 0.38
0.01 0.01 0.03 0.16 0.26 0.15 0.10 0.09 0.12 0.15 0.17 0.17 0.26 0.30 0.21 0.25 0.32 0.41 0.49 0.49 0.41 0.32 0.23 0.19 0.21 0.23 0.24 0.28 0.33 0.43 0.48 0.50 0.52 0.58 0.65 0.64 0.51 0.46 0.46 0.40 0.34 0.32 0.31 0.31
0.01 0.01 0.03 0.10 0.11 0.08 0.09 0.10 0.08 0.13 0.21 0.18 0.16 0.21 0.22 0.25 0.32 0.40 0.44 0.40 0.32 0.25 0.20 0.17 0.20 0.23 0.26 0.29 0.29 0.32 0.36 0.38 0.44 0.46 0.55 0.66 0.61 0.50 0.38 0.30 0.31 0.33 0.33 0.34
0.01 0.01 0.01 0.02 0.03 0.06 0.09 0.09 0.08 0.08 0.14 0.25 0.19 0.17 0.19 0.20 0.20 0.24 0.25 0.21 0.17 0.16 0.14 0.15 0.18 0.21 0.25 0.25 0.22 0.19 0.17 0.17 0.23 0.28 0.35 0.44 0.39 0.33 0.30 0.27 0.21 0.19 0.24 0.29
0.01 0.01 0.00 0.01 0.03 0.06 0.08 0.11 0.08 0.06 0.06 0.09 0.12 0.17 0.18 0.18 0.19 0.20 0.19 0.17 0.16 0.16 0.13 0.12 0.14 0.17 0.19 0.16 0.11 0.08 0.08 0.11 0.18 0.24 0.29 0.36 0.35 0.28 0.23 0.19 0.14 0.14 0.20 0.27
0.01 0.01 0.00 0.01 0.03 0.04 0.11 0.11 0.07 0.04 0.03 0.04 0.13 0.21 0.19 0.20 0.19 0.18 0.16 0.14 0.12 0.10 0.08 0.07 0.06 0.06 0.05 0.05 0.04 0.05 0.06 0.07 0.15 0.24 0.32 0.37 0.42 0.41 0.31 0.18 0.15 0.18 0.24 0.32
0.03 0.02 0.00 0.01 0.03 0.14 0.12 0.05 0.04 0.04 0.03 0.03 0.06 0.09 0.10 0.09 0.07 0.06 0.06 0.05 0.03 0.03 0.03 0.03 0.02 0.02 0.02 0.02 0.04 0.07 0.06 0.08 0.13 0.23 0.31 0.34 0.38 0.40 0.36 0.30 0.29 0.32 0.38 0.44
0.05 0.03 0.02 0.02 0.03 0.10 0.06 0.05 0.05 0.06 0.04 0.03 0.04 0.04 0.04 0.04 0.04 0.06 0.03 0.02 0.01 0.01 0.01 0.01 0.02 0.01 0.02 0.02 0.06 0.11 0.12 0.15 0.20 0.30 0.39 0.40 0.42 0.42 0.37 0.34 0.38 0.42 0.48 0.49
0.04 0.04 0.06 0.04 0.06 0.10 0.07 0.07 0.08 0.06 0.11 0.08 0.05 0.04 0.03 0.02 0.08 0.10 0.04 0.01 0.01 0.01 0.01 0.02 0.02 0.03 0.04 0.07 0.11 0.16 0.22 0.27 0.35 0.44 0.50 0.49 0.53 0.56 0.51 0.52 0.53 0.53 0.56 0.52
0.03 0.04 0.05 0.07 0.09 0.10 0.07 0.07 0.06 0.09 0.16 0.04 0.02 0.01 0.01 0.02 0.05 0.05 0.02 0.01 0.01 0.01 0.02 0.03 0.04 0.04 0.07 0.10 0.14 0.24 0.29 0.33 0.37 0.40 0.48 0.55 0.61 0.68 0.72 0.77 0.73 0.69 0.65 0.63
0.03 0.04 0.06 0.09 0.14 0.14 0.05 0.02 0.03 0.05 0.02 0.01 0.01 0.01 0.02 0.02 0.01 0.01 0.01 0.01 0.01 0.02 0.03 0.04 0.06 0.06 0.08 0.11 0.18 0.25 0.29 0.32 0.36 0.41 0.50 0.57 0.63 0.63 0.73 0.97 0.97 0.98 0.93 0.81
0.02 0.03 0.04 0.04 0.05 0.02 0.01 0.01 0.01 0.01 0.02 0.02 0.02 0.01 0.02 0.02 0.02 0.02 0.02 0.02 0.02 0.02 0.03 0.05 0.09 0.11 0.14 0.18 0.29 0.41 0.38 0.39 0.44 0.50 0.57 0.61 0.62 0.70 0.84 0.98 1.02 1.06 1.02 0.90
0.01 0.01 0.02 0.03 0.01 0.01 0.01 0.01 0.01 0.01 0.01 0.01 0.01 0.01 0.02 0.03 0.03 0.03 0.03 0.03 0.04 0.04 0.06 0.09 0.14 0.21 0.29 0.34 0.41 0.51 0.48 0.49 0.54 0.57 0.60 0.63 0.68 0.72 0.80 0.96 0.98 0.98 0.95 0.93
0.01 0.00 0.01 0.03 0.02 0.01 0.02 0.02 0.01 0.01 0.01 0.01 0.01 0.02 0.02 0.03 0.04 0.04 0.04 0.05 0.05 0.06 0.07 0.13 0.22 0.31 0.39 0.47 0.53 0.57 0.61 0.67 0.71 0.66 0.64 0.68 0.73 0.78 0.85 0.92 0.97 0.93 0.88 0.79
0.01 0.02 0.03 0.04 0.04 0.05 0.05 0.03 0.01 0.01 0.01 0.01 0.02 0.02 0.03 0.04 0.05 0.05 0.05 0.05 0.05 0.07 0.08 0.14 0.21 0.31 0.40 0.49 0.56 0.61 0.71 0.84 0.92 0.91 0.81 0.81 0.84 0.88 0.94 0.94 0.85 0.71 0.64 0.51